Flag for United Kingdom Weather past 2 weeks in Belfast, Northern Ireland, United Kingdom

Now
73 °F

Passing clouds.


Feels Like: 76 °F
Forecast: 56 / 72 °F
Wind: 8 mph from Southeast

Location: Belfast / Aldergrove Airport

Current Time: Jul 23, 2014 at 12:43:43 PM

Latest Report: Jul 23, 2014 at 12:20 PM


Visibility: N/A

Pressure: 30.21 "Hg

Humidity: 69%

Dew point: 63 °F

Location of BelfastLocation

Historic Weather in Belfast — Graph

°F

Belfast temperature yesterday

Maximum temperature yesterday: 75 °F (at 1:20 PM)
Minimum temperature yesterday: 57 °F (at 5:50 AM)
Average temperature yesterday: 67 °F

Past Weeks' High & Low Weather Summary

 TemperatureHumidityPressure
High75 °F (Jul 22, 1:20 PM)100% (Jul 10, 3:20 AM)30.27 "Hg (Jul 10, 3:20 AM)
Low46 °F (Jul 10, 3:20 AM)56% (Jul 15, 2:50 PM)29.68 "Hg (Jul 14, 12:50 PM)
Average61 °F82%30.00 "Hg
* Reported Jul 8 11:20 AM — Jul 23 11:20 AM, Belfast, Weather by CustomWeather, © 2014

Note: Actual official high and low records may vary slightly from our data, if they occured in-between our weather recording intervals... More about our weather records

Advertising

Belfast weather history for previous 24 hours

 ConditionsComfort  
Time TempWeatherWind HumidityBarometerVisibility
11:20 AM
Jul 23
72 °FPassing clouds.9 mph69%30.21 "HgN/A
10:20 AM70 °FSunny.10 mph73%30.21 "Hg10 mi
9:50 AM70 °FSunny.10 mph73%30.21 "Hg10 mi
9:20 AM68 °FSunny.10 mph78%30.21 "Hg10 mi
8:50 AM68 °FPassing clouds.8 mph83%30.21 "HgN/A
6:50 AM61 °FPassing clouds.3 mph88%30.21 "HgN/A
6:20 AM59 °FSunny.5 mph94%30.21 "Hg10 mi
5:50 AM57 °FClear.5 mph94%30.21 "Hg10 mi
5:20 AM55 °FClear.6 mph100%30.21 "Hg10 mi
4:50 AM55 °FClear.3 mph94%30.24 "Hg10 mi
4:20 AM55 °FCool.5 mph100%30.24 "Hg5 mi
3:50 AM57 °FCool.3 mph94%30.24 "Hg4 mi
3:20 AM57 °FCool.2 mph94%30.24 "Hg4 mi
2:50 AM57 °FClear.No wind94%30.24 "Hg10 mi
2:20 AM59 °FClear.2 mph88%30.24 "Hg10 mi
1:50 AM57 °FClear.5 mph94%30.24 "Hg10 mi
1:20 AM61 °FClear.3 mph88%30.24 "Hg10 mi
12:50 AM61 °FClear.3 mph88%30.24 "Hg10 mi
5:50 PM
Jul 22
73 °FPassing clouds.7 mph65%30.24 "HgN/A
5:20 PM75 °FPassing clouds.6 mph65%30.24 "HgN/A
4:50 PM73 °FScattered clouds.6 mph69%30.24 "HgN/A
4:20 PM75 °FScattered clouds.5 mph65%30.24 "HgN/A
3:50 PM75 °FScattered clouds.6 mph65%30.24 "HgN/A
3:20 PM73 °FPartly sunny.5 mph69%30.24 "HgN/A
2:50 PM73 °FScattered clouds.6 mph69%30.24 "HgN/A
2:20 PM75 °FScattered clouds.7 mph65%30.24 "HgN/A
1:50 PM73 °FPassing clouds.9 mph69%30.24 "HgN/A
1:20 PM75 °FScattered clouds.9 mph69%30.24 "HgN/A
12:50 PM73 °FBroken clouds.8 mph69%30.24 "HgN/A
12:20 PM72 °FBroken clouds.8 mph78%30.24 "HgN/A
Weather by CustomWeather, © 2014

See weather overviewHow to use our weather pages